Regional Weather Roundup
Issued by NWS

Home | Current Version | Previous Version | Graphics & Text | Print | Product List | Glossary On
Versions: 1 2 3 4 5 6 7 8 9 10 11 12 13 14 15 16 17 18 19 20 21 22 23 24 25 26 27 28 29 30 31 32 33 34 35 36 37 38 39 40 41 42 43 44 45 46 47 48 49 50
000
ASUS45 KTFX 291410
RWRMT
MONTANA REGIONAL WEATHER ROUNDUP
NATIONAL WEATHER SERVICE GREAT FALLS MT
800 AM MDT WED JUL 29 2015

NOTE: "FAIR" INDICATES FEW OR NO CLOUDS BELOW 12000 FEET WITH NO
SIGNIFICANT WEATHER AND/OR OBSTRUCTIONS TO VISIBILITY.

MTZ001>007-043-291500-
WEST OF THE DIVIDE

CITY           SKY/WX    TMP DP  RH WIND       PRES   REMARKS
KALISPELL      SUNNY     52  44  74 CALM      30.25S
MISSOULA       SUNNY     51  44  77 CALM      30.34R
BUTTE          SUNNY     41  37  86 S3        30.39R
MULLAN PASS    SUNNY     53  33  46 NW5       30.36R
DEER LODGE       N/A     48  41  76 CALM      30.39S
EUREKA           N/A     55  45  67 SE3       30.25F
HAMILTON         N/A     52  39  62 SW7       30.33R
LIBBY            N/A     48  43  81 CALM      30.27S
PLAINS           N/A     49  42  76 CALM      30.26S
RONAN            N/A     51  45  80 CALM      30.29R
$$

MTZ008-052>055-291500-
SOUTHWEST MONTANA

CITY           SKY/WX    TMP DP  RH WIND       PRES   REMARKS
BOZEMAN        SUNNY     50  40  68 S5        30.35R
DILLON         SUNNY     49  40  71 S8        30.36S
W YELLOWSTONE  SUNNY     36  34  93 CALM      30.45S
TWIN BRIDGES     N/A     46  38  74 S6        30.31R
$$

MTZ009-010-012-014-046-048-049-054-291500-
EAST SLOPES AND CENTRAL MONTANA

CITY           SKY/WX    TMP DP  RH WIND       PRES   REMARKS
CUT BANK       SUNNY     60  43  53 W10       30.20S
GREAT FALLS    SUNNY     61  40  45 SW13      30.23R
MALMSTROM AFB  SUNNY     61  42  49 SW13      30.23R
HELENA         SUNNY     55  41  59 E3        30.30R
CONRAD           N/A     64  48  56 W10       30.20R
$$

MTZ011-013-016-021-045-047-050-051-291500-
NORTH CENTRAL MONTANA

CITY           SKY/WX    TMP DP  RH WIND       PRES   REMARKS
HAVRE          MOSUNNY   60  47  61 SW15      30.16R
LEWISTOWN      SUNNY     58  42  55 SW3       30.26S
CHINOOK          N/A     63  52  67 W5        30.15S
FORT BENTON      N/A     63  43  48 SW9       30.21S
$$

MTZ017>020-022>027-061-062-291500-
NORTHEAST MONTANA

CITY           SKY/WX    TMP DP  RH WIND       PRES   REMARKS
GLASGOW        SUNNY     57  48  72 W5        30.11R
JORDAN           N/A     59  46  62 W5        30.16R
SIDNEY         PTSUNNY   64  48  55 W14       30.07R
WOLF POINT     PTSUNNY   58  50  75 SW13      30.10R
MALTA            N/A     58  49  72 SW8       30.08S
PLENTYWOOD       N/A     63  52  67 W12G18    30.03R
POPLAR           N/A     59  52  77 SW13      30.09R
SCOBEY           N/A     59  48  66 W12       30.05R
$$

MTZ028>42-056>058-291500-
SOUTHCENTRAL AND SOUTHEAST MONTANA

CITY           SKY/WX    TMP DP  RH WIND       PRES   REMARKS
BAKER          MOSUNNY   64  42  44 W14       30.17R
BILLINGS       MOSUNNY   56  38  50 SW14      30.27R
LIVINGSTON     SUNNY     54  40  59 NW12      30.32R
MILES CITY     SUNNY     61  44  53 W12       30.18R
EKALAKA          N/A     63  37  37 W12       30.17R
FORSYTH          N/A     63  43  48 W5        30.20S
LAUREL           N/A     54  39  56 S6        30.24R
ROUNDUP          N/A     55  39  54 S10       30.14R
$$

REGIONAL REPORTS...DAKOTAS

CITY           SKY/WX    TMP DP  RH WIND       PRES   REMARKS
WILLISTON      PTSUNNY   61  51  70 W17       30.02R
MINOT          MOSUNNY   66  51  58 W21G28    29.90R
DICKINSON      PTSUNNY   61  46  57 W13       30.08R
BEACH          FAIR      59  45  58 W15       30.13S
CROSBY         FAIR      63  55  77 W15G22    29.97R
BISMARCK       SUNNY     68  48  48 W20G26    30.01R
GRAND FORKS    CLOUDY    69  53  56 W28G37    29.70R
FARGO          SUNNY     71  53  52 W26G37    29.80R
BUFFALO SD       N/A     64  41  42 W17       30.12R
RAPID CITY     SUNNY     67  45  45 W14       30.24S
$$

REGIONAL REPORTS...WYOMING/IDAHO/WASHINGTON

CITY           SKY/WX    TMP DP  RH WIND       PRES   REMARKS
GILLETTE       SUNNY     64  36  35 SW14      30.31R
SHERIDAN       SUNNY     64  40  41 CALM      30.29R
BUFFALO WY     SUNNY     64  35  34 S7        30.34S
CODY           SUNNY     57  34  41 SW9G16    30.34S
YELLOWSTONE LA   N/A     37  33  85 CALM      30.50R
IDAHO FALLS    SUNNY     46  42  86 N6        30.37R
SALMON         SUNNY     48  43  81 CALM      30.37R
BOISE          SUNNY     62  37  39 SE7       30.24R
SPOKANE        MOSUNNY   60  41  49 SE8       30.22R
$$

REGIONAL REPORTS...ALBERTA

CITY           SKY/WX    TMP DP  RH WIND       PRES   REMARKS
EDMONTON       SUNNY     59  46  63 W6        30.03S
CALGARY        PTSUNNY   59  41  51 SW6       30.14S
LETHBRIDGE     MOSUNNY   59  43  55 W10       30.16S
MEDICINE HAT   MOSUNNY   59  48  67 SW12      30.11S
WATERTON GATE    N/A     59  41  51 SW14G23     N/A
CARDSTON         N/A     61  39  44 W12G17      N/A
MILK RIVER       N/A     57  43  58 W14         N/A
ONEFOUR          N/A     57  46  67 NW15        N/A
$$

REGIONAL REPORTS...SASKATCHEWAN

CITY           SKY/WX    TMP DP  RH WIND       PRES   REMARKS
SWIFT CURRENT  SUNNY     59  50  72 W9        30.06R
REGINA         MOSUNNY   61  54  77 W14       29.94R
SASKATOON      MOSUNNY   63  54  72 W12G21    29.93R
CYPRESS HILLS    N/A     59  45  58 NW5         N/A
VAL MARIE        N/A     61  50  67 W9          N/A
ROCKGLEN         N/A     61  50  67 W12G17      N/A
ASSINIBOIA       N/A     61  48  63 W9          N/A
$$


USA.gov is the U.S. government's official web portal to all federal, state and local government web resources and services.